Location: Alpha Ridge Park
(39.3209°N, 76.9128°W)
Time: 03:54:56
(UTC-04:00)

Transit 2A - Pass Details

Date: 28 May 2019
Orbit: 593 x 966 km, 66.7° (Epoch: 25 June)

Event Time Altitude Azimuth Distance (km) Brightness Sun altitude
Rises 08:44:09 0° 250° (WSW) 3,590 9.0 32.3°
Reaches altitude 10° 08:47:16 10° 265° (W) 2,679 8.4 32.9°
Maximum altitude 08:52:06 23° 315° (NW) 1,951 7.9 33.8°
Drops below altitude 10° 08:56:59 10° 5° (N) 2,701 9.0 34.8°
Sets 09:00:09 0° 20° (NNE) 3,626 9.7 35.4°
